Wind_Speed
11 8 6 3 0 2 3 5 1 2 2 4 11 5 6 3 4 1 11 20 22 18 18 14 10 7 4 2 1 1 1 2 2 3 3 4 5 5 4 5 5 5 6 6 7 8 8 8 9
8 6 5 3 3 3 4 3 6 4 5 13 11 8 4 2 4 8 17 19 22 17 17 11 10 6 3 2 1 1 1 2 3 4 5 5 5 6 6 6 7 7 7 7 7 7 8 8 9
6 7 5 3 4 9 5 5 6 3 17 8 6 3 5 5 5 20 12 24 22 18 15 12 9 5 3 2 1 2 2 3 4 4 4 5 6 6 7 7 7 8 8 8 8 8 8 7 9
5 6 2 3 9 7 6 3 6 10 6 6 7 4 5 8 14 16 22 24 21 18 15 12 8 5 3 2 2 2 3 3 4 4 4 5 6 7 7 8 8 8 8 8 8 8 8 8 8
9 4 3 3 7 4 4 2 11 7 5 8 11 6 6 10 15 18 25 23 20 18 16 12 8 5 3 2 2 3 3 4 4 4 5 6 7 8 8 8 8 8 8 9 9 9 8 8 8
4 1 2 10 6 5 4 11 6 7 5 8 8 11 7 14 15 21 24 23 18 16 15 11 8 5 4 3 3 3 3 4 4 5 6 7 7 7 8 8 9 9 10 10 10 10 10 9 9
4 2 3 3 11 8 5 7 6 8 7 6 6 8 7 20 17 22 25 22 20 16 12 11 8 6 5 4 3 3 3 4 5 5 6 7 7 7 8 9 10 11 11 11 11 11 11 10 10
3 3 2 4 5 9 6 9 5 14 8 6 10 5 6 26 23 27 27 23 21 17 14 12 9 7 6 5 3 3 3 4 5 6 6 6 7 7 8 10 11 12 12 13 13 12 12 12 11
3 1 4 4 5 3 1 5 5 8 7 11 12 6 4 26 28 32 30 27 24 20 17 14 11 8 7 5 4 3 3 4 5 6 6 6 6 7 8 10 11 12 13 13 13 13 13 12 12
4 2 8 4 2 2 6 3 2 5 8 8 11 12 9 27 32 36 35 32 27 22 19 16 12 10 8 6 4 3 3 4 5 5 5 5 5 6 8 9 11 12 13 13 13 14 14 13 13
3 4 4 3 2 2 5 6 12 3 4 13 22 23 19 28 34 35 34 30 26 21 19 16 13 11 8 6 5 3 3 3 4 5 4 4 4 6 8 9 10 12 12 13 14 14 14 14 13
3 5 8 6 2 4 6 11 11 9 8 9 17 18 24 30 35 37 36 31 27 23 19 16 14 11 8 6 4 3 2 2 3 4 4 3 4 5 6 8 9 11 12 14 14 14 15 14 14
3 3 9 9 18 12 11 7 8 17 19 19 15 18 27 31 33 35 33 28 25 23 20 16 13 11 9 6 5 3 2 1 3 3 3 2 3 4 5 7 10 11 12 13 13 14 14 14 14
3 3 8 14 21 12 7 8 5 8 10 16 16 18 30 33 33 36 35 31 28 23 20 17 14 12 9 7 5 3 2 0 2 3 3 3 3 4 6 8 10 11 12 13 14 14 14 14 13
8 7 7 7 7 5 4 9 7 15 17 15 14 19 29 33 33 34 35 34 27 23 19 17 14 12 10 7 5 4 3 2 2 4 4 4 4 5 7 9 10 12 13 14 14 15 15 15 14
1 2 3 4 3 6 6 13 4 12 14 17 15 20 26 31 32 32 34 30 26 23 20 17 14 12 10 7 6 6 5 3 3 4 5 5 5 6 8 10 12 13 13 14 15 15 14 14 14
2 3 4 5 7 4 8 5 7 16 11 17 17 21 24 28 29 29 31 28 26 22 20 17 14 12 10 9 8 7 6 5 4 5 6 6 6 7 9 10 11 12 14 15 15 15 16 15 13
4 3 4 3 3 3 4 11 8 11 8 15 15 20 22 26 27 28 28 28 25 22 20 17 15 14 12 11 10 8 7 6 6 6 6 7 8 9 10 11 12 13 14 15 15 15 15 16 15
4 3 5 3 6 4 6 11 8 21 9 11 15 20 23 24 24 23 25 27 27 24 22 20 17 14 12 11 10 9 7 7 8 8 8 8 9 10 11 12 13 13 14 14 14 13 13 13 13
13 7 6 6 8 5 5 9 10 6 7 14 18 20 22 20 20 23 25 26 27 25 23 21 17 14 12 11 9 8 7 8 8 8 9 9 9 10 11 12 12 13 13 12 12 12 12 13 14
10 11 4 6 3 3 1 5 4 7 7 8 14 14 18 20 21 22 23 25 26 26 24 21 18 14 13 11 9 9 9 8 9 9 10 10 9 10 11 12 12 12 11 10 11 11 11 11 12
10 11 11 8 1 3 2 3 4 6 7 5 14 15 16 19 20 20 23 26 26 24 21 20 19 16 15 13 11 11 10 10 10 10 10 10 10 11 11 11 11 10 10 10 11 10 10 11 12
7 12 10 5 5 1 1 1 5 1 8 8 10 19 17 18 19 20 22 22 22 21 20 20 19 18 16 14 13 12 11 11 11 10 10 11 11 11 11 11 10 9 9 9 8 10 11 12 12
3 2 3 1 2 2 6 4 3 4 10 3 5 18 18 16 16 18 20 22 22 21 21 20 19 17 16 15 14 14 13 12 12 11 11 11 11 11 10 9 8 8 9 8 9 10 10 10 10
5 4 2 3 1 3 5 3 8 2 2 2 1 3 12 16 18 20 22 23 23 22 21 19 17 16 15 15 15 13 13 14 12 11 11 11 11 10 9 8 8 8 7 9 9 9 9 9 10
6 2 3 4 3 2 2 5 6 1 0 3 6 6 6 16 18 20 21 21 21 20 18 16 14 14 13 13 13 13 13 12 11 11 11 10 9 9 9 9 9 8 8 8 7 7 8 9 10
3 2 3 5 2 1 3 5 6 1 1 4 0 6 8 12 16 19 19 19 18 16 14 12 11 10 10 11 12 11 10 10 10 10 9 9 9 9 9 9 8 9 9 7 7 8 9 9 13
1 2 2 2 2 3 3 4 4 2 3 4 5 11 12 13 16 18 18 17 16 14 12 9 9 8 9 9 9 8 9 9 9 9 9 9 9 10 9 9 10 10 8 8 9 9 10 13 17
2 1 2 3 2 1 3 5 4 2 1 5 6 15 19 19 20 20 18 16 13 11 10 8 8 7 7 7 7 8 8 9 9 9 9 9 9 9 10 10 10 10 10 10 11 11 15 19 22
3 4 5 3 4 3 2 5 2 1 5 10 12 16 17 19 19 18 16 14 12 10 8 6 5 5 6 6 7 8 9 9 9 9 9 9 9 10 10 11 11 11 11 12 13 16 20 24 26
Wind_Direction
254 249 249 241 319 56 244 241 262 218 196 179 147 161 182 121 171 174 151 161 167 166 161 170 164 170 181 216 273 330 3 7 15 18 23 17 14 7 4 355 341 330 324 318 316 313 309 304 296
248 227 204 171 149 189 243 208 222 216 160 140 142 123 135 139 143 147 149 161 166 168 163 163 166 173 189 216 182 62 54 42 45 34 24 16 15 10 1 1 352 345 340 337 335 329 322 315 307
231 197 175 166 173 208 220 211 203 159 152 159 134 164 157 151 152 157 169 158 163 163 165 167 171 180 195 197 147 102 82 65 55 42 24 16 11 10 2 359 355 352 351 349 346 339 332 330 317
197 173 139 192 205 229 199 201 168 141 190 187 161 138 158 163 164 173 161 161 167 167 168 172 175 183 192 181 136 102 88 73 61 46 31 18 11 11 4 5 4 360 356 352 349 346 340 338 326
187 178 178 192 227 260 245 203 173 173 179 180 171 168 150 162 168 173 165 166 173 168 168 174 179 188 186 168 141 120 98 77 60 47 28 20 11 9 9 12 9 2 2 358 356 351 347 340 330
188 144 182 215 211 239 258 219 175 182 178 165 168 150 163 172 175 172 169 167 172 173 171 177 184 190 181 167 146 122 95 76 56 37 25 17 17 17 18 20 17 12 10 6 3 0 353 348 340
149 121 230 203 209 227 209 198 193 181 174 213 182 149 169 173 171 172 172 174 176 177 180 190 191 189 178 168 152 124 89 64 45 34 29 22 22 23 27 25 21 16 12 8 5 3 359 351 346
200 132 203 222 193 231 203 182 229 189 206 177 172 191 182 182 170 169 175 182 183 188 192 193 190 184 178 168 151 118 84 53 42 37 31 29 29 30 29 25 21 16 13 10 7 4 360 353 347
172 208 213 209 174 232 272 194 194 204 183 183 193 185 195 177 170 173 181 185 187 190 192 190 187 179 174 165 149 122 83 56 44 37 35 34 36 33 29 26 22 18 14 11 8 5 2 357 352
199 210 205 213 237 288 322 329 270 187 180 200 202 199 191 182 179 181 187 187 188 189 186 185 183 180 175 169 156 126 82 61 47 40 39 41 40 33 30 25 20 16 14 11 8 5 3 359 355
200 229 230 251 202 26 346 353 332 243 219 204 212 206 190 185 188 189 191 193 189 186 186 185 184 181 179 174 160 133 99 75 50 38 37 40 39 33 26 18 14 12 10 7 7 4 1 0 358
241 257 256 284 291 335 323 326 323 247 244 232 238 225 197 191 196 196 194 190 189 187 186 188 187 185 184 177 165 142 113 74 40 32 33 35 31 23 13 7 5 5 3 3 1 359 358 357 355
228 261 281 264 268 295 295 281 284 282 273 267 260 228 210 201 199 199 196 193 190 188 188 190 191 190 188 185 176 164 138 68 20 15 18 21 12 2 355 354 355 356 355 353 352 351 350 350 349
229 225 276 272 263 264 282 276 305 293 319 261 247 226 213 207 202 198 194 195 193 190 190 191 192 195 193 192 190 186 178 300 351 353 353 344 330 333 339 343 344 343 342 343 343 344 343 341 341
267 273 305 252 256 238 197 274 213 267 281 277 237 222 212 206 206 204 194 195 192 191 193 193 196 198 198 199 202 206 216 252 327 342 337 319 307 314 328 333 334 333 334 336 336 337 337 336 333
241 179 256 307 196 229 171 257 241 240 278 265 242 222 214 210 208 202 199 195 191 194 195 197 200 202 205 207 213 221 233 260 313 330 321 305 304 313 320 325 325 326 327 330 333 334 334 333 333
273 250 235 304 210 230 191 272 218 256 254 260 245 227 215 214 209 203 199 196 195 197 199 200 204 207 209 216 223 231 242 266 299 314 306 301 303 308 314 315 319 325 329 330 331 333 334 334 338
202 222 220 208 292 208 214 251 289 270 243 251 249 234 220 217 213 203 197 196 198 202 202 203 207 208 210 218 227 236 247 267 292 296 303 300 301 303 305 312 323 329 328 327 331 335 336 338 344
284 310 274 229 251 238 224 244 231 264 245 243 240 234 222 217 213 205 198 198 200 202 204 204 205 209 215 221 227 239 256 273 282 289 299 295 288 295 306 315 320 323 327 330 332 335 340 343 343
236 260 288 269 253 187 266 261 236 234 244 236 231 235 228 211 203 201 199 200 202 204 204 204 206 214 217 219 227 243 259 272 283 290 286 282 286 300 305 306 313 322 326 328 333 338 341 344 347
225 224 233 249 314 221 291 285 218 253 235 226 225 236 232 213 202 199 199 201 200 202 204 207 211 218 221 225 235 251 266 281 287 281 282 287 294 295 294 300 309 315 320 325 331 333 336 342 346
231 206 234 272 304 248 170 272 271 232 242 211 217 207 218 212 206 203 201 198 198 200 205 208 213 220 224 231 241 254 270 283 282 283 288 290 286 287 292 297 303 308 315 320 324 329 332 333 333
235 182 203 257 215 89 217 195 260 345 237 240 212 216 214 216 209 201 198 198 198 201 204 206 212 220 226 235 244 254 268 277 282 285 281 279 283 286 289 293 297 301 305 311 316 322 324 328 333
255 154 111 143 156 213 211 181 252 200 217 236 209 220 214 208 198 192 194 198 199 201 203 209 217 222 230 238 245 253 265 276 278 273 273 277 280 283 286 284 286 289 296 301 310 315 322 331 335
239 218 132 182 241 231 338 124 248 246 274 308 83 164 196 200 192 190 192 195 198 201 206 210 214 221 229 236 242 252 263 267 266 269 271 276 279 279 276 276 276 280 285 299 307 315 324 332 336
214 141 154 168 192 236 5 229 246 247 266 295 263 227 188 186 188 190 192 193 195 197 200 204 209 217 223 231 241 248 256 260 262 271 277 277 275 271 268 268 270 275 287 295 301 309 322 331 338
194 187 186 106 53 41 216 273 300 181 302 56 173 171 160 170 177 185 186 187 188 190 193 200 204 216 227 231 239 246 249 259 271 276 275 272 269 266 264 263 267 278 282 285 294 308 318 324 326
80 155 88 19 136 274 284 281 224 230 273 90 107 129 134 142 148 153 159 166 170 176 185 197 206 212 222 227 233 244 256 264 271 273 273 272 269 266 261 264 271 274 275 281 292 300 308 317 324
5 321 23 115 147 160 317 251 222 186 221 124 117 123 126 128 132 136 143 152 160 168 174 182 190 200 214 226 237 248 258 267 274 277 278 275 272 267 265 269 272 272 275 283 285 293 308 315 319
222 238 189 162 199 136 219 272 349 58 153 138 124 121 125 128 131 132 136 142 149 156 166 173 184 202 218 233 249 259 265 273 276 280 281 279 271 268 271 274 273 273 280 285 289 298 307 312 316
Height
1532 1533 1534 1536 1544 1543 1544 1536 1531 1529 1529 1528 1529 1531 1532 1533 1535 1541 1537 1540 1544 1547 1550 1552 1554 1556 1557 1557 1557 1557 1557 1557 1557 1557 1556 1556 1555 1555 1555 1554 1554 1553 1553 1552 1552 1551 1550 1550 1549
1530 1532 1534 1534 1541 1546 1536 1530 1528 1524 1524 1526 1528 1530 1532 1533 1534 1535 1538 1540 1544 1547 1549 1552 1554 1555 1556 1556 1556 1556 1556 1556 1556 1556 1556 1556 1555 1555 1554 1553 1553 1552 1552 1551 1550 1550 1549 1549 1548
1528 1530 1533 1532 1539 1535 1533 1523 1521 1523 1524 1525 1527 1529 1530 1532 1534 1535 1536 1539 1543 1546 1549 1551 1553 1554 1555 1556 1556 1556 1556 1556 1556 1556 1556 1555 1555 1554 1554 1553 1552 1551 1551 1550 1549 1548 1548 1547 1546
1527 1530 1532 1532 1532 1523 1519 1516 1518 1522 1525 1524 1523 1528 1530 1530 1531 1534 1536 1540 1543 1545 1548 1550 1552 1554 1555 1555 1555 1556 1556 1556 1556 1556 1555 1555 1555 1554 1553 1552 1552 1551 1550 1549 1549 1547 1547 1545 1545
1525 1526 1529 1532 1527 1521 1517 1515 1517 1520 1520 1521 1522 1525 1528 1529 1531 1533 1536 1540 1543 1544 1547 1549 1551 1553 1554 1555 1555 1555 1556 1556 1556 1556 1556 1555 1555 1554 1553 1552 1552 1551 1550 1549 1548 1547 1546 1545 1544
1525 1525 1530 1523 1525 1518 1515 1514 1515 1518 1519 1520 1522 1523 1526 1527 1530 1533 1536 1539 1543 1545 1546 1549 1551 1552 1553 1554 1554 1555 1555 1556 1556 1556 1555 1555 1554 1554 1553 1552 1552 1551 1549 1548 1547 1546 1545 1544 1543
1523 1526 1524 1523 1516 1515 1513 1513 1513 1513 1517 1518 1519 1522 1524 1525 1528 1531 1536 1539 1542 1545 1546 1548 1550 1551 1552 1553 1554 1555 1555 1555 1555 1555 1555 1555 1554 1554 1553 1552 1551 1550 1549 1548 1546 1545 1544 1543 1542
1523 1523 1525 1522 1517 1511 1509 1510 1511 1511 1513 1515 1517 1518 1520 1520 1525 1529 1534 1539 1541 1544 1545 1547 1549 1550 1552 1553 1554 1554 1554 1555 1555 1555 1555 1554 1554 1554 1553 1552 1551 1550 1549 1547 1546 1545 1543 1542 1541
1523 1524 1523 1518 1517 1513 1509 1508 1508 1509 1510 1512 1514 1515 1516 1519 1522 1526 1531 1535 1538 1542 1544 1546 1548 1549 1551 1552 1553 1554 1554 1554 1554 1554 1554 1554 1554 1553 1553 1552 1551 1550 1549 1547 1545 1544 1542 1541 1540
1522 1523 1519 1514 1512 1510 1510 1510 1508 1509 1509 1510 1511 1513 1515 1518 1520 1521 1526 1530 1535 1539 1542 1545 1546 1548 1550 1551 1552 1553 1553 1554 1553 1553 1553 1553 1553 1553 1553 1552 1551 1550 1548 1547 1545 1544 1542 1541 1539
1519 1518 1516 1511 1511 1511 1510 1509 1509 1507 1507 1504 1504 1507 1512 1514 1518 1520 1524 1529 1534 1538 1541 1544 1545 1547 1549 1550 1551 1552 1553 1553 1553 1553 1553 1553 1553 1553 1553 1552 1551 1550 1548 1547 1545 1544 1542 1541 1539
1519 1515 1515 1512 1511 1510 1510 1509 1508 1506 1502 1502 1503 1506 1508 1510 1512 1515 1521 1526 1531 1536 1540 1542 1544 1546 1548 1549 1550 1552 1552 1553 1552 1552 1552 1552 1553 1553 1553 1552 1551 1550 1549 1547 1546 1544 1542 1540 1539
1517 1515 1514 1511 1510 1510 1509 1508 1508 1503 1502 1500 1501 1502 1505 1507 1510 1516 1522 1528 1531 1534 1537 1541 1543 1545 1547 1548 1550 1550 1551 1552 1552 1551 1551 1552 1552 1553 1552 1552 1551 1550 1548 1547 1545 1543 1542 1540 1538
1513 1513 1512 1510 1508 1509 1509 1506 1506 1500 1499 1498 1498 1499 1501 1503 1506 1511 1517 1524 1528 1532 1536 1539 1542 1544 1546 1548 1549 1550 1550 1550 1551 1551 1551 1551 1551 1551 1551 1551 1550 1549 1547 1546 1544 1542 1541 1539 1537
1511 1512 1510 1508 1505 1506 1506 1503 1499 1499 1497 1497 1496 1497 1499 1501 1505 1508 1514 1519 1526 1531 1534 1537 1540 1542 1545 1547 1548 1549 1549 1549 1550 1550 1550 1550 1550 1550 1550 1549 1548 1547 1546 1544 1542 1541 1539 1537 1536
1512 1511 1512 1505 1504 1503 1505 1496 1493 1496 1495 1494 1495 1495 1497 1500 1503 1508 1513 1519 1525 1529 1532 1535 1538 1541 1543 1545 1547 1547 1548 1548 1549 1549 1549 1549 1549 1549 1548 1547 1547 1545 1544 1543 1541 1540 1538 1536 1534
1512 1512 1513 1509 1502 1501 1501 1498 1491 1491 1491 1491 1493 1494 1495 1498 1502 1507 1511 1518 1523 1527 1530 1533 1536 1539 1541 1543 1545 1546 1547 1548 1548 1548 1548 1548 1548 1547 1547 1546 1545 1544 1543 1541 1539 1537 1535 1534 1533
1511 1512 1510 1508 1500 1500 1500 1495 1491 1490 1488 1488 1491 1493 1493 1495 1500 1505 1510 1515 1521 1525 1528 1531 1534 1537 1539 1541 1542 1544 1545 1546 1547 1546 1546 1546 1546 1546 1544 1544 1543 1542 1541 1539 1537 1536 1535 1532 1531
1511 1512 1509 1505 1498 1499 1498 1495 1491 1487 1486 1486 1487 1490 1490 1493 1499 1504 1508 1512 1516 1521 1525 1528 1531 1535 1537 1538 1540 1542 1543 1544 1544 1544 1544 1544 1544 1543 1543 1543 1542 1540 1539 1538 1537 1535 1533 1532 1530
1508 1509 1510 1502 1495 1498 1494 1491 1487 1485 1482 1481 1483 1487 1489 1491 1496 1500 1504 1508 1513 1518 1522 1525 1530 1533 1535 1537 1539 1541 1542 1542 1542 1542 1542 1541 1541 1542 1542 1541 1540 1539 1538 1537 1535 1534 1532 1531 1529
1503 1505 1506 1503 1493 1494 1491 1488 1484 1480 1479 1479 1480 1483 1487 1489 1492 1497 1501 1505 1510 1514 1519 1523 1527 1530 1533 1534 1536 1538 1539 1540 1540 1539 1539 1538 1539 1539 1539 1539 1538 1537 1536 1535 1534 1532 1531 1529 1529
1503 1502 1501 1500 1499 1498 1489 1492 1483 1479 1476 1476 1478 1479 1484 1486 1490 1494 1498 1502 1507 1512 1517 1521 1524 1527 1530 1532 1534 1536 1537 1537 1537 1536 1536 1536 1536 1536 1536 1536 1535 1535 1534 1533 1532 1531 1529 1528 1527
1493 1494 1494 1497 1498 1496 1493 1495 1478 1479 1475 1472 1473 1476 1480 1484 1486 1490 1495 1501 1506 1510 1515 1518 1521 1524 1527 1529 1531 1533 1534 1535 1535 1534 1533 1533 1533 1533 1533 1533 1533 1532 1532 1531 1530 1529 1528 1527 1526
1493 1491 1494 1498 1499 1499 1490 1490 1479 1475 1466 1466 1468 1471 1476 1480 1484 1488 1494 1499 1503 1507 1512 1515 1518 1521 1524 1526 1528 1530 1531 1532 1532 1531 1530 1530 1530 1530 1531 1530 1530 1530 1529 1529 1528 1527 1526 1525 1524
1496 1493 1495 1496 1497 1494 1502 1497 1472 1466 1466 1466 1466 1469 1472 1477 1481 1485 1490 1495 1500 1505 1509 1513 1516 1518 1521 1523 1525 1526 1528 1528 1528 1528 1528 1528 1527 1527 1528 1528 1528 1527 1527 1527 1527 1526 1525 1524 1522
1492 1485 1495 1491 1500 1492 1500 1489 1468 1468 1467 1466 1466 1467 1469 1473 1477 1482 1487 1493 1498 1502 1507 1511 1513 1516 1518 1520 1522 1523 1524 1525 1525 1525 1525 1525 1524 1525 1525 1525 1525 1525 1525 1525 1525 1524 1523 1522 1521
1486 1488 1487 1498 1513 1502 1487 1478 1466 1467 1468 1466 1466 1466 1468 1472 1475 1480 1485 1491 1497 1501 1505 1508 1510 1513 1514 1516 1518 1520 1521 1522 1522 1522 1522 1522 1522 1522 1522 1523 1523 1523 1523 1523 1522 1522 1521 1520 1519
1486 1486 1488 1494 1495 1491 1488 1481 1467 1466 1466 1467 1469 1467 1469 1473 1476 1480 1486 1492 1496 1500 1504 1506 1508 1509 1512 1513 1515 1517 1518 1519 1519 1519 1519 1519 1519 1520 1520 1521 1521 1521 1520 1520 1519 1519 1518 1517 1515
1488 1488 1489 1489 1490 1490 1486 1472 1471 1466 1468 1467 1468 1469 1471 1475 1479 1483 1488 1492 1496 1499 1502 1504 1506 1507 1510 1512 1513 1514 1515 1516 1516 1516 1516 1516 1517 1518 1518 1519 1518 1518 1518 1517 1517 1516 1515 1514 1511
1488 1484 1482 1482 1487 1493 1497 1476 1469 1468 1470 1469 1469 1471 1475 1478 1482 1485 1489 1493 1496 1498 1501 1502 1504 1506 1508 1509 1510 1511 1512 1513 1513 1514 1514 1514 1515 1516 1516 1516 1516 1516 1516 1515 1514 1512 1511 1509 1506